User: anonymous   Login
Location: Moonridge Observatory
(39.2268°N, 77.7914°W)
Time: 12:35:26
(UTC-04:00)
Language:

CZ-2C R/B - Orbit

View from above orbital plane
View from above orbital plane
View from above satellite
View from above satellite

Ground track
Ground track

The orbit data is extracted from the following two-line orbital elements,

1 28480U 04046B   18109.88780986 -.00000006 +00000-0 +13138-4 0  9996
2 28480 098.1780 191.1574 0142735 039.7893 091.3416 14.25670485697914
Epoch (UTC): 19 April 2018 21:18:26
Eccentricity: 0.0142735
inclination: 98.1780°
perigee height: 703 km
apogee height: 909 km
right ascension of ascending node: 191.1574°
argument of perigee: 39.7893°
revolutions per day: 14.25670485
mean anomaly at epoch: 91.3416°
orbit number at epoch: 69791

The dashed part of the orbit path shows where the satellite is in the earth's shadow,  

DLR